Location: Unspecified
(50.1700°N, 6.8600°E)
Time: 23:45:04
(UTC+00:00)

Cosmos 371 Rocket - Pass Details

Date: 24 January 2019
Orbit: 683 x 700 km, 74.0° (Epoch: 16 February)

Event Time Altitude Azimuth Distance (km) Brightness Sun altitude
Exits shadow 05:44:45 13° 327° (NNW) 1,976 5.2 -14.6°
Maximum altitude 05:49:00 54° 252° (WSW) 852 3.4 -14.0°
Drops below altitude 10° 05:53:44 10° 176° (S) 2,154 6.1 -13.2°
Sets 05:56:04 0° 172° (S) 3,065 6.9 -12.9°
